NOAA 16 DEB, 41291

Orbit data source: Space-Track

NOAA 16 DEB, 41291 is space debris in SSO originally from a launch on Thu, 21 Sep 2000 UTC launched from the Air Force Western Test Range (AFWTR). Debris objects in space refer to the collection of defunct objects orbiting the Earth. Examples of debris include non-operational satellites, rocket bodies, and fragments generated from explosions, collisions, or faulty payload assembly.

Loading next visibility...
Identifier
41291, 2000-055GT
Orbit
SSO
Country
Flag of USUS
Related business
Manufacturer
Unknown
Mission
Spacecraft
Bus & Motor
Unknown
Mass
Unknown
Launch date (UTC)
2000-09-21 (26 years ago)
Launch vehicle
Unknown
Launch site
Air Force Western Test Range (AFWTR)
Object type
Payload
Rocket body
Debris
Shape & HBR
Unknown shape, 0.1 m
Radar Cross Section
Medium (>0.1 m² and <1 m²)

Expand to show TLE details & history
Last TLE update: 1 day ago

TLE from 1 day ago
0 NOAA 16 DEB
1 41291U 00055GT  26250.51518316  .00004791  00000-0  10212-2 0  9991
2 41291  98.9734 150.7724 0032115 151.2531 209.0444 14.59140719562710
Epoch: 2026-09-07T12:21Z
TLE epoch observation values (Epoch: 2026-09-07T12:21:51.825Z)
Latitude
-0.00005°
Longitude
-21.28837°
Altitude
718.792 km
Speed
7.486 km/s
True Right ascension
10h 03m 05s
True Declination
0° 00' 00"
Sunlit
Object was in daylight at epoch
Visualization orbit readout
Latitude
Unknown
Longitude
Unknown
Altitude
Unknown
Speed
Unknown
Apparent Right ascension
Unknown
Apparent Declination
Unknown
Sunlit
N/A
Visualization observer readout
Local Sidereal Time
10:47:20
Azimuth
Unknown
Elevation
Unknown
Doppler factor
Unknown
Orbital elements
Apogee altitude
715.779 km
Perigee altitude
670.36 km
Semi-major axis
7,071.206 km
Eccentricity
0.00321
Inclination
98.9734°
RAAN
150.7724°
Arg. of periapsis
151.2531°
True anomaly
208.86636°
Mean anomaly
209.0444°
Eccentric anomaly
208.95532°
Mean motion
3.65008 °/min
Orbital period
98.63 mins
BSTAR
0.0010212
Loading maneuver chart data...
Computing Atmospheric mass density...
Loading historical data...
Loading historical data...
Loading historical data...
Loading historical data...
Loading historical data...
Loading historical data...
Loading historical data...

Documentation

Showing up to 5 results
|